When you browse on this site, cookies collect data to enhance your experience and personalize the content and advertising you see.
Visit our Privacy Policy to learn more. By continuing to use the site, you agree to this use of cookies and data.
  • Em Portugal
  • Lista de países
  • Para 7 dias
  • Temperatura da água
  • Mapas de satélite
  • Mapa do tempo
  • Widgets de tempo
  • user-avatar
    Iniciar Sessão

    Previsão horária em Chosciszowice

    Hoje, 24 Março, Domingo

    Tempo Temperatura Precipitação Vento Pressão Humidade
    00:00 +8°C° 0 mm 2 m/s 752 mmHg 90%
    01:00 +8°C° 0 mm 1 m/s 752 mmHg 90%
    02:00 +8°C° 0 mm 1 m/s 752 mmHg 90%
    03:00 +8°C° 0 mm 1 m/s 752 mmHg 90%
    04:00 +7°C° 0 mm 1 m/s 752 mmHg 90%
    05:00 +7°C° 0 mm 1 m/s 752 mmHg 90%
    06:00 +7°C° 0 mm 1 m/s 752 mmHg 90%
    07:00 +7°C° 0 mm 1 m/s 752 mmHg 88%
    08:00 +8°C° 0 mm 1 m/s 752 mmHg 78%
    09:00 +9°C° 0 mm 1 m/s 752 mmHg 68%
    10:00 +10°C° 0 mm 2 m/s 751 mmHg 58%
    11:00 +11°C° 0 mm 1 m/s 751 mmHg 54%
    12:00 +12°C° 0 mm 1 m/s 751 mmHg 50%
    13:00 +13°C° 0 mm 1 m/s 750 mmHg 47%
    14:00 +13°C° 0 mm 1 m/s 749 mmHg 48%
    15:00 +11°C° 0 mm 0 m/s 749 mmHg 50%
    16:00 +11°C° 0 mm 0 m/s 748 mmHg 51%
    17:00 +10°C° 0 mm 0 m/s 748 mmHg 54%
    18:00 +11°C° 0 mm 1 m/s 748 mmHg 57%
    19:00 +10°C° 0 mm 1 m/s 747 mmHg 59%
    20:00 +9°C° 0 mm 2 m/s 747 mmHg 61%
    21:00 +8°C° 0 mm 2 m/s 747 mmHg 62%
    22:00 +8°C° 0 mm 2 m/s 746 mmHg 64%
    23:00 +7°C° 0 mm 2 m/s 746 mmHg 66%

    Amanhã, 25 Março, Segunda-feira

    Tempo Temperatura Precipitação Vento Pressão Humidade
    00:00 +7°C° 0 mm 2 m/s 746 mmHg 68%
    01:00 +6°C° 0 mm 2 m/s 745 mmHg 71%
    02:00 +5°C° 0 mm 2 m/s 745 mmHg 74%
    03:00 +4°C° 0 mm 3 m/s 744 mmHg 77%
    04:00 +3°C° 0 mm 3 m/s 744 mmHg 81%
    05:00 +3°C° 0 mm 4 m/s 743 mmHg 79%
    06:00 +3°C° 0 mm 4 m/s 743 mmHg 77%
    07:00 +3°C° 0 mm 4 m/s 743 mmHg 75%
    08:00 +3°C° 0.1 mm 5 m/s 742 mmHg 70%
    09:00 +4°C° 0.1 mm 6 m/s 742 mmHg 65%
    10:00 +5°C° 0.1 mm 7 m/s 742 mmHg 60%
    11:00 +4°C° 0.5 mm 7 m/s 742 mmHg 61%
    12:00 +4°C° 0.5 mm 6 m/s 742 mmHg 63%
    13:00 +5°C° 0.5 mm 5 m/s 742 mmHg 64%
    14:00 +6°C° 0.2 mm 5 m/s 742 mmHg 61%
    15:00 +6°C° 0.2 mm 5 m/s 742 mmHg 59%
    16:00 +6°C° 0.2 mm 5 m/s 742 mmHg 56%
    17:00 +5°C° 0.3 mm 4 m/s 743 mmHg 63%
    18:00 +4°C° 0.3 mm 3 m/s 744 mmHg 70%
    19:00 +4°C° 0.3 mm 2 m/s 744 mmHg 76%
    20:00 +4°C° 0 mm 2 m/s 745 mmHg 80%
    21:00 +3°C° 0 mm 2 m/s 746 mmHg 83%
    22:00 +2°C° 0 mm 2 m/s 747 mmHg 86%
    23:00 +1°C° 0 mm 3 m/s 747 mmHg 88%

    Depois de amanhã, 26 Março, Terça-feira

    Tempo Temperatura Precipitação Vento Pressão Humidade
    00:00 0°C° 0 mm 3 m/s 748 mmHg 89%
    01:00 0°C° 0 mm 3 m/s 749 mmHg 91%
    02:00 0°C° 0 mm 3 m/s 749 mmHg 93%
    03:00 -1°C° 0 mm 3 m/s 749 mmHg 95%
    04:00 -1°C° 0 mm 3 m/s 749 mmHg 97%
    05:00 -1°C° 0 mm 3 m/s 750 mmHg 95%
    06:00 -1°C° 0 mm 4 m/s 750 mmHg 94%
    07:00 -1°C° 0 mm 4 m/s 750 mmHg 93%
    08:00 0°C° 0 mm 5 m/s 750 mmHg 87%
    09:00 +2°C° 0 mm 6 m/s 750 mmHg 81%
    10:00 +4°C° 0 mm 6 m/s 750 mmHg 75%
    11:00 +4°C° 0 mm 7 m/s 750 mmHg 74%
    12:00 +4°C° 0 mm 7 m/s 750 mmHg 72%
    13:00 +4°C° 0 mm 8 m/s 750 mmHg 71%
    14:00 +4°C° 0.1 mm 7 m/s 750 mmHg 71%
    15:00 +3°C° 0.1 mm 7 m/s 750 mmHg 71%
    16:00 +3°C° 0.1 mm 7 m/s 750 mmHg 71%
    17:00 +3°C° 0.1 mm 6 m/s 750 mmHg 73%
    18:00 +2°C° 0.1 mm 5 m/s 750 mmHg 75%
    19:00 +3°C° 0.1 mm 4 m/s 751 mmHg 77%
    20:00 +3°C° 0.1 mm 4 m/s 751 mmHg 80%
    21:00 +3°C° 0.1 mm 4 m/s 751 mmHg 82%
    22:00 +3°C° 0.1 mm 4 m/s 752 mmHg 84%
    23:00 +2°C° 0.1 mm 3 m/s 752 mmHg 88%

    27 Março, Quarta-feira

    Tempo Temperatura Precipitação Vento Pressão Humidade
    00:00 +2°C° 0.1 mm 3 m/s 752 mmHg 91%
    01:00 +1°C° 0.1 mm 3 m/s 752 mmHg 95%
    02:00 +2°C° 0 mm 2 m/s 752 mmHg 96%
    03:00 +1°C° 0 mm 2 m/s 752 mmHg 96%
    04:00 +1°C° 0 mm 2 m/s 752 mmHg 97%
    05:00 +1°C° 0 mm 2 m/s 752 mmHg 95%
    06:00 +1°C° 0 mm 3 m/s 752 mmHg 94%
    07:00 +2°C° 0 mm 3 m/s 753 mmHg 93%
    08:00 +3°C° 0 mm 3 m/s 753 mmHg 89%
    09:00 +4°C° 0 mm 3 m/s 753 mmHg 86%
    10:00 +4°C° 0 mm 4 m/s 753 mmHg 82%
    11:00 +5°C° 0 mm 4 m/s 753 mmHg 77%
    12:00 +6°C° 0 mm 5 m/s 753 mmHg 72%
    13:00 +7°C° 0 mm 5 m/s 753 mmHg 67%
    14:00 +7°C° 0 mm 5 m/s 753 mmHg 67%
    15:00 +7°C° 0 mm 5 m/s 753 mmHg 67%
    16:00 +7°C° 0 mm 5 m/s 752 mmHg 68%
    17:00 +6°C° 0 mm 4 m/s 752 mmHg 72%
    18:00 +6°C° 0 mm 4 m/s 753 mmHg 77%
    19:00 +5°C° 0 mm 3 m/s 753 mmHg 81%
    20:00 +5°C° 0.1 mm 3 m/s 753 mmHg 84%
    21:00 +5°C° 0.1 mm 3 m/s 753 mmHg 86%
    22:00 +5°C° 0.1 mm 4 m/s 753 mmHg 89%
    23:00 +5°C° 0.1 mm 3 m/s 753 mmHg 89%

    28 Março, Quinta-feira

    Tempo Temperatura Precipitação Vento Pressão Humidade
    00:00 +5°C° 0.1 mm 3 m/s 753 mmHg 90%
    01:00 +5°C° 0.1 mm 3 m/s 753 mmHg 91%
    02:00 +5°C° 0.2 mm 3 m/s 753 mmHg 92%
    03:00 +5°C° 0.2 mm 3 m/s 753 mmHg 92%
    04:00 +6°C° 0.2 mm 2 m/s 753 mmHg 93%
    05:00 +6°C° 0.1 mm 2 m/s 753 mmHg 93%
    06:00 +6°C° 0.1 mm 2 m/s 754 mmHg 93%
    07:00 +6°C° 0.1 mm 2 m/s 754 mmHg 93%
    08:00 +7°C° 0.1 mm 2 m/s 754 mmHg 90%
    09:00 +7°C° 0.1 mm 2 m/s 755 mmHg 86%
    10:00 +7°C° 0.1 mm 2 m/s 755 mmHg 83%
    11:00 +8°C° 0 mm 2 m/s 755 mmHg 78%
    12:00 +8°C° 0 mm 2 m/s 755 mmHg 73%
    13:00 +9°C° 0 mm 2 m/s 755 mmHg 69%
    14:00 +9°C° 0 mm 2 m/s 755 mmHg 67%
    15:00 +9°C° 0 mm 2 m/s 755 mmHg 66%
    16:00 +9°C° 0 mm 2 m/s 755 mmHg 65%
    17:00 +8°C° 0 mm 2 m/s 756 mmHg 70%
    18:00 +8°C° 0 mm 1 m/s 756 mmHg 75%
    19:00 +7°C° 0 mm 1 m/s 756 mmHg 80%
    20:00 +7°C° 0 mm 1 m/s 756 mmHg 83%
    21:00 +6°C° 0 mm 1 m/s 756 mmHg 85%
    22:00 +5°C° 0 mm 1 m/s 757 mmHg 88%
    23:00 +5°C° 0 mm 1 m/s 757 mmHg 88%

    29 Março, Sexta-feira

    Tempo Temperatura Precipitação Vento Pressão Humidade
    00:00 +5°C° 0 mm 1 m/s 757 mmHg 89%
    01:00 +4°C° 0 mm 1 m/s 757 mmHg 89%
    02:00 +4°C° 0 mm 1 m/s 757 mmHg 89%
    03:00 +4°C° 0 mm 1 m/s 757 mmHg 89%
    04:00 +4°C° 0 mm 1 m/s 757 mmHg 90%
    05:00 +4°C° 0 mm 1 m/s 757 mmHg 88%
    06:00 +5°C° 0 mm 1 m/s 757 mmHg 85%
    07:00 +5°C° 0 mm 1 m/s 757 mmHg 83%
    08:00 +7°C° 0 mm 1 m/s 757 mmHg 75%
    09:00 +9°C° 0 mm 1 m/s 757 mmHg 67%
    10:00 +11°C° 0 mm 1 m/s 757 mmHg 59%
    11:00 +12°C° 0 mm 1 m/s 757 mmHg 55%
    12:00 +13°C° 0 mm 1 m/s 756 mmHg 51%
    13:00 +14°C° 0 mm 2 m/s 756 mmHg 47%
    14:00 +14°C° 0 mm 2 m/s 755 mmHg 47%
    15:00 +14°C° 0 mm 2 m/s 755 mmHg 47%
    16:00 +14°C° 0 mm 2 m/s 755 mmHg 46%
    17:00 +13°C° 0 mm 2 m/s 754 mmHg 52%
    18:00 +11°C° 0 mm 1 m/s 754 mmHg 59%
    19:00 +9°C° 0 mm 1 m/s 754 mmHg 65%
    20:00 +9°C° 0 mm 1 m/s 754 mmHg 68%
    21:00 +8°C° 0 mm 1 m/s 754 mmHg 71%
    22:00 +8°C° 0 mm 1 m/s 754 mmHg 74%
    23:00 +7°C° 0 mm 1 m/s 754 mmHg 76%
    Mostrar mais